Tracking 19181 objects as of 17-Jun-2018
HD Live streaming from Space Station
objects crossing your sky now

FENGYUN 1C DEB

Track FENGYUN 1C DEB now!
10-day predictions


NORAD ID: 31827
Int'l Code: 1999-025CHR
Perigee: 839.4 km
Apogee: 1,033.5 km
Inclination: 97.6 °
Period: 103.6 minutes
Semi major axis: 7307 km
RCS: 0.0105 m2 (small)
Launch date: May 10, 1999
Source: People's Republic of China (PRC)
Launch site: Taiyaun Space Center, China (TSC)

Note: This is SATELLITE DEBRIS
aabbcc
Your satellite tracking list
Your tracking list is empty




NASA's NSSDC Master Catalog

Two Line Element Set (TLE):
1 31827U 99025CHR 18166.85602682 +.00000430 +00000-0 +35053-3 0  9991
2 31827 097.6486 177.3722 0132797 012.0412 348.3873 13.89809367559370
Source of the keplerian elements: AFSPC